カタログに戻る

COSMOS 2491 DEB

LostPO
NORAD 57565·DEBRIS·🇷🇺 Russia

打ち上げ Dec 25, 2013 から Plesetsk Cosmodrome

Loading…

次のパス (今後24時間)

TLE

古いSource: Space-Track

元期: Dec 16, 2025, 02:13 UTC

1 57565U 13076BC  25350.09239388  .00000852  00000-0  60693-2 0  9993
2 57565  82.4790 289.8135 0018992  24.3735 335.8238 12.42978392118884

AllMySatでCOSMOS 2491 DEBをリアルタイム追跡

Download on the App Store